Regional Weather Roundup
Issued by NWS

Home | Current Version | Previous Version | Graphics & Text | Print | Product List | Glossary On
Versions: 1 2 3 4 5 6 7 8 9 10 11 12 13 14 15 16 17 18 19 20 21 22 23 24 25 26 27 28 29 30 31 32 33 34 35 36 37 38 39 40 41 42 43 44 45 46 47 48 49 50
000
ASUS43 KLMK 192110
RWRKY
KENTUCKY REGIONAL WEATHER ROUNDUP
NATIONAL WEATHER SERVICE LOUISVILLE KY
500 PM EDT SUN APR 19 2015

NOTE "FAIR" INDICATES FEW OR NO CLOUDS BELOW 12,000 FEET
WITH NO SIGNIFICANT WEATHER AND/OR OBSTRUCTIONS TO VISIBILITY.

KYZ001>023-026-027-061>063-070>075-192200-
WESTERN AND SOUTH CENTRAL KENTUCKY

CITY           SKY/WX    TMP DP  RH WIND       PRES   REMARKS
PADUCAH        LGT RAIN  68  64  87 W14G26    29.49S FOG
HENDERSON      CLOUDY    70  64  83 S9        29.46F
OWENSBORO      LGT RAIN  68  66  93 SW10      29.49S FOG
HOPKINSVILLE   CLOUDY    68  65  90 S10       29.53S
BOWLING GREEN  LGT RAIN  69  62  78 S14G25    29.51F
GLASGOW        CLOUDY    73  63  72 S10       29.53S
$$

KYZ024-025-028>034-038-045-046-053-192200-
NORTH CENTRAL KENTUCKY

CITY           SKY/WX    TMP DP  RH WIND       PRES   REMARKS
LOUISVILLE/SDF PTSUNNY   72  64  76 SW10G20   29.47F
LOUISVILLE/LOU PTSUNNY   70  66  87 S7        29.49F
FORT KNOX      LGT RAIN  71  64  81 S12       29.48F
$$

KYZ035>037-039>044-047>052-055>060-089>105-192200-
NORTHEAST KENTUCKY

CITY           SKY/WX    TMP DP  RH WIND       PRES   REMARKS
LEXINGTON      CLOUDY    71  65  81 S16G25    29.55F
COVINGTON      LGT RAIN  64  62  93 SE17G23   29.50F
FRANKFORT      CLOUDY    71  63  75 S10G24    29.51S
$$

KYZ054-064>069-076>088-106>120-192200-
SOUTHEAST KENTUCKY

CITY           SKY/WX    TMP DP  RH WIND       PRES   REMARKS
JACKSON        CLOUDY    67  60  78 SE8       29.63F
LONDON         CLOUDY    69  61  75 S8        29.62F
SOMERSET       CLOUDY    70  61  73 S7        29.59F
MIDDLESBORO    CLOUDY    69  64  82 SE7       29.66F
MONTICELLO     CLOUDY    76  66  71 S9        29.60F
$$



USA.gov is the U.S. government's official web portal to all federal, state and local government web resources and services.